COSMOS 2294 (GLONASS)

Satellite information

Favourite Embed

Satellite Type and Status

PAYLOADIN ORBIT

Key statistics

Satellite COSMOS 2294 (GLONASS) at a glance.

Uptime

11127

Days in orbit

Revolutions

≈ 2.1

Per day

Orbit

MEO

Medium Earth Orbit

Inclination

64.6

Latest

Satellite identification and parameters

Extended collection of information and parameters for COSMOS 2294 (GLONASS).

Object identification

Identified? True

Debris? False

Object name: COSMOS 2294 (GLONASS)

International designator: 1994-076C

Object number (NORAD): 23398

Object ID (CCSDS): 23398

Country: COMMONWEALTH OF INDEPENDENT STATES (CIS)

Current information (Y/N): Y

RCS size: LARGE

Orbital parameters

Period: 675.733 minutes

Inclination: 64.5951 deg

SMA: 25508.036 km

Apoapsis: 19142.089 km

Periapsis: 19117.713 km

RAAN: 82.7844 deg

Eccentricy: 0.0004778

Argument of periapsis: 24.242 deg

Mean anomaly: 146.7826 deg

Mean motion: 2.13101852 rev/day

Mean motion (dot): 0.00000001 rev/day2

B* drag term: 0.0 1/REarth

Two-line elements (TLE)

Creation date: May 8, 2025, 3:01 a.m.

Reference frame: TEME

Reference center: EARTH

Epoch: May 7, 2025, 9:12 a.m. UTC

TLE line 0: 0 COSMOS 2294 (GLONASS)

TLE line 1: 1 23398U 94076C 25127.38401147 .00000001 00000-0 00000-0 0 9997

TLE line 2: 2 23398 64.5951 82.7844 0004778 24.2420 146.7826 2.13101852237032

Live tracking on map

Real-time ground track for satellite COSMOS 2294 (GLONASS).

In-orbit conjunctions

A list of the most updated potential collisions computed for object COSMOS 2294 (GLONASS).

Target Orbit TCA Probability of collision Miss distance Type
COSMOS 2288 (GLONASS) MEO 2025-05-10 20:30:51 TBA 2721.0 (m) PAYLOAD
COSMOS 2288 (GLONASS) MEO 2025-05-10 09:15:07 TBA 3213.0 (m) PAYLOAD
COSMOS 2288 (GLONASS) MEO 2025-05-09 21:59:23 TBA 4102.0 (m) PAYLOAD
COSMOS 2288 (GLONASS) MEO 2025-04-11 23:52:54 TBA 4420.0 (m) PAYLOAD
COSMOS 2288 (GLONASS) MEO 2025-04-11 12:37:10 TBA 3763.0 (m) PAYLOAD

Associated space launch

GLONASS navigation satellites

COSMOS 2294 (GLONASS) was lifted into orbit during the mission ‘Proton | Uragan 60 to 62’, on board a Proton space rocket.

The launch took place on Nov. 20, 1994, 12:39 a.m. from 200/39 (200L).

For more information about the launch, click the button.

Launch to space Proton | Uragan 60 to 62
Proton | Uragan 60 to 62

Agency: N/A

Status: Launch Successful

Launch date: Nov. 20, 1994, 12:39 a.m. UTC

Rocket: Proton

Launch pad: 200/39 (200L)

Location: Baikonur Cosmodrome, Republic of Kazakhstan

...

Latest news about this satellite

There are no fresh news available about this satellite. Check back as we update our databases every day.


Newsletter sign-up

Weekly statistics, charts and insights to help you stay on top of the space industry.